Location: Prairie Dale
(45.6972°N, 104.5033°W)
Time: 14:50:47
(UTC+00:00)

Envisat - Pass Details

Date: 27 January 2022
Orbit: 764 x 765 km, 98.2° (Epoch: 15 May)

Event Time Altitude Azimuth Distance (km) Brightness Sun altitude
Rises 13:41:16 0° 356° (N) 3,242 6.0 -7.9°
Reaches altitude 10° 13:44:46 10° 331° (NNW) 2,311 5.1 -7.3°
Maximum altitude 13:47:06 13° 304° (WNW) 2,083 4.6 -6.9°
Drops below altitude 10° 13:49:27 10° 276° (W) 2,305 4.8 -6.6°
Sets 13:52:57 0° 250° (WSW) 3,226 5.8 -6.0°
